�������l�o���
Date,Time,MP-1(��Sv/h),MP-2(��Sv/h),MP-3(��Sv/h),MP-4(��Sv/h),MP-5(��Sv/h),MP-6(��Sv/h),MP-7(��Sv/h),MP-8(��Sv/h),����,����(m/s),���J
2019/03/29,00:00,0.783,1.161,0.794,1.478,1.074,0.440,0.785,0.743,���k��,3.0,��
2019/03/29,00:10,0.783,1.160,0.795,1.478,1.070,0.439,0.782,0.742,���k��,2.3,��
2019/03/29,00:20,0.785,1.160,0.795,1.476,1.073,0.441,0.784,0.741,���k��,2.9,��
2019/03/29,00:30,0.785,1.158,0.793,1.476,1.071,0.441,0.784,0.743,�k��,2.6,��
2019/03/29,00:40,0.783,1.160,0.795,1.480,1.071,0.441,0.784,0.742,���k��,3.1,��
2019/03/29,00:50,0.783,1.162,0.793,1.477,1.070,0.440,0.783,0.741,��,3.0,��
2019/03/29,01:00,0.786,1.160,0.794,1.478,1.070,0.440,0.785,0.742,��,3.0,��
2019/03/29,01:10,0.784,1.160,0.796,1.479,1.072,0.441,0.782,0.743,���k��,3.4,��
2019/03/29,01:20,0.785,1.159,0.794,1.478,1.071,0.440,0.783,0.742,���k��,3.4,��
2019/03/29,01:30,0.784,1.159,0.793,1.479,1.073,0.440,0.785,0.742,���k��,3.7,��
2019/03/29,01:40,0.783,1.158,0.794,1.478,1.072,0.440,0.783,0.741,�k��,4.5,��
2019/03/29,01:50,0.784,1.160,0.794,1.479,1.071,0.439,0.784,0.744,�k��,4.8,��
2019/03/29,02:00,0.784,1.159,0.795,1.477,1.070,0.440,0.784,0.742,�k��,5.8,��
2019/03/29,02:10,0.783,1.160,0.796,1.477,1.071,0.441,0.784,0.742,�k��,5.1,��
2019/03/29,02:20,0.781,1.162,0.794,1.479,1.069,0.440,0.784,0.742,�k��,5.1,��
2019/03/29,02:30,0.782,1.160,0.795,1.477,1.071,0.440,0.785,0.741,���k��,5.4,��
2019/03/29,02:40,0.784,1.161,0.794,1.478,1.072,0.439,0.783,0.743,���k��,5.5,��
2019/03/29,02:50,0.781,1.161,0.794,1.478,1.072,0.440,0.783,0.741,���k��,5.0,��
2019/03/29,03:00,0.783,1.159,0.794,1.477,1.070,0.441,0.782,0.743,���k��,5.6,��
2019/03/29,03:10,0.784,1.159,0.793,1.477,1.070,0.441,0.783,0.743,�k��,6.0,��
2019/03/29,03:20,0.783,1.161,0.794,1.479,1.068,0.439,0.784,0.742,���k��,6.2,��
2019/03/29,03:30,0.783,1.160,0.794,1.476,1.071,0.442,0.784,0.741,���k��,5.0,��
2019/03/29,03:40,0.783,1.160,0.792,1.477,1.070,0.440,0.783,0.742,���k��,5.7,��
2019/03/29,03:50,0.785,1.160,0.795,1.480,1.069,0.440,0.784,0.741,���k��,7.1,��
2019/03/29,04:00,0.783,1.158,0.796,1.479,1.071,0.439,0.786,0.742,���k��,7.9,��
2019/03/29,04:10,0.783,1.160,0.794,1.480,1.071,0.439,0.783,0.741,���k��,6.9,��
2019/03/29,04:20,0.782,1.159,0.794,1.480,1.070,0.440,0.784,0.741,���k��,6.5,��
2019/03/29,04:30,0.781,1.158,0.794,1.478,1.070,0.441,0.783,0.744,���k��,7.5,��
2019/03/29,04:40,0.783,1.160,0.794,1.479,1.070,0.440,0.784,0.743,���k��,7.2,��
2019/03/29,04:50,0.783,1.159,0.794,1.478,1.071,0.442,0.785,0.742,���k��,6.0,��
2019/03/29,05:00,0.783,1.160,0.794,1.478,1.069,0.439,0.784,0.741,���k��,6.0,��
2019/03/29,05:10,0.785,1.158,0.794,1.477,1.068,0.439,0.784,0.742,���k��,5.1,��
2019/03/29,05:20,0.782,1.159,0.796,1.478,1.069,0.439,0.785,0.743,��,5.0,��
2019/03/29,05:30,0.785,1.159,0.793,1.475,1.070,0.441,0.783,0.742,��,4.8,��
2019/03/29,05:40,0.782,1.158,0.793,1.477,1.068,0.441,0.785,0.742,��,4.5,��
2019/03/29,05:50,0.782,1.158,0.795,1.479,1.069,0.441,0.785,0.742,��,3.7,��
2019/03/29,06:00,0.783,1.160,0.794,1.478,1.069,0.440,0.785,0.743,��,4.0,��
2019/03/29,06:10,0.781,1.157,0.793,1.480,1.070,0.440,0.781,0.742,��,3.9,��
2019/03/29,06:20,0.782,1.160,0.793,1.476,1.071,0.440,0.785,0.742,���k��,4.8,��
2019/03/29,06:30,0.784,1.157,0.794,1.476,1.071,0.442,0.783,0.742,���k��,4.8,��
2019/03/29,06:40,0.783,1.159,0.792,1.477,1.069,0.440,0.784,0.741,���k��,5.6,��
2019/03/29,06:50,0.783,1.158,0.794,1.475,1.069,0.440,0.782,0.743,���k��,4.7,��
2019/03/29,07:00,0.783,1.158,0.793,1.479,1.071,0.441,0.784,0.742,���k��,4.8,��
2019/03/29,07:10,0.783,1.159,0.793,1.477,1.071,0.441,0.784,0.742,���k��,3.7,��
2019/03/29,07:20,0.785,1.162,0.794,1.479,1.072,0.440,0.784,0.743,�k��,3.1,��
2019/03/29,07:30,0.783,1.157,0.794,1.477,1.070,0.440,0.786,0.743,�k��,3.0,��
2019/03/29,07:40,0.784,1.158,0.793,1.480,1.069,0.440,0.786,0.742,�k��,3.4,��
2019/03/29,07:50,0.785,1.159,0.793,1.480,1.070,0.442,0.785,0.742,�k��,3.4,��
2019/03/29,08:00,0.785,1.162,0.793,1.478,1.070,0.441,0.785,0.743,�k�k��,4.4,��
2019/03/29,08:10,0.784,1.160,0.793,1.478,1.070,0.441,0.785,0.743,�k�k��,4.6,��
2019/03/29,08:20,0.786,1.159,0.793,1.480,1.068,0.442,0.786,0.743,�k�k��,5.2,��
2019/03/29,08:30,0.786,1.161,0.794,1.480,1.072,0.440,0.787,0.744,�k�k��,3.9,��
2019/03/29,08:40,0.786,1.162,0.794,1.477,1.070,0.440,0.786,0.744,�k��,4.2,��
2019/03/29,08:50,0.786,1.161,0.793,1.479,1.072,0.441,0.786,0.744,�k�k��,5.3,��
2019/03/29,09:00,0.786,1.162,0.795,1.480,1.071,0.441,0.783,0.743,�k��,3.1,��
2019/03/29,09:10,0.787,1.158,0.795,1.479,1.072,0.441,0.783,0.743,�k�k��,4.6,��
2019/03/29,09:20,0.785,1.160,0.794,1.478,1.074,0.442,0.783,0.742,�k,5.8,��
2019/03/29,09:30,0.787,1.159,0.796,1.480,1.072,0.439,0.782,0.743,�k�k��,6.0,��
2019/03/29,09:40,0.786,1.157,0.794,1.480,1.073,0.441,0.784,0.745,�k�k��,5.3,��
2019/03/29,09:50,0.786,1.158,0.797,1.481,1.073,0.441,0.783,0.744,�k�k��,5.6,��
2019/03/29,10:00,0.786,1.155,0.795,1.480,1.073,0.440,0.781,0.744,�k�k��,4.5,��
2019/03/29,10:10,0.785,1.159,0.796,1.480,1.073,0.441,0.783,0.741,�k�k��,5.0,��
2019/03/29,10:20,0.786,1.157,0.797,1.480,1.074,0.441,0.784,0.740,�k�k��,5.8,��
2019/03/29,10:30,0.786,1.161,0.797,1.483,1.077,0.441,0.783,0.740,�k�k��,6.5,��
2019/03/29,10:40,0.786,1.159,0.796,1.479,1.073,0.440,0.784,0.741,�k��,6.6,��
2019/03/29,10:50,0.787,1.158,0.798,1.485,1.073,0.438,0.785,0.742,�k��,5.9,��
2019/03/29,11:00,0.786,1.157,0.796,1.482,1.075,0.438,0.784,0.741,�k��,5.4,��
2019/03/29,11:10,0.785,1.158,0.795,1.481,1.074,0.440,0.785,0.741,�k��,5.3,��
2019/03/29,11:20,0.786,1.160,0.797,1.482,1.071,0.440,0.783,0.742,�k��,4.7,��
2019/03/29,11:30,0.786,1.158,0.796,1.483,1.072,0.440,0.784,0.742,�k��,5.8,��
2019/03/29,11:40,0.787,1.159,0.796,1.482,1.070,0.443,0.784,0.742,�k��,5.5,��
2019/03/29,11:50,0.786,1.159,0.796,1.480,1.072,0.441,0.785,0.741,���k��,5.5,��
2019/03/29,12:00,0.787,1.162,0.795,1.479,1.074,0.441,0.785,0.741,���k��,4.5,��
2019/03/29,12:10,0.789,1.158,0.796,1.480,1.071,0.443,0.785,0.741,���k��,4.5,��
2019/03/29,12:20,0.786,1.161,0.797,1.480,1.073,0.440,0.784,0.743,��,4.0,��
2019/03/29,12:30,0.787,1.161,0.796,1.483,1.073,0.442,0.785,0.742,��,3.4,��
2019/03/29,12:40,0.788,1.161,0.795,1.482,1.072,0.441,0.786,0.742,��,3.9,��
2019/03/29,12:50,0.786,1.163,0.797,1.482,1.071,0.442,0.785,0.742,���쓌,2.9,��
2019/03/29,13:00,0.787,1.160,0.794,1.482,1.072,0.443,0.784,0.740,���쓌,3.3,��
2019/03/29,13:10,0.788,1.162,0.796,1.481,1.071,0.443,0.784,0.744,���쓌,3.3,��
2019/03/29,13:20,0.788,1.161,0.797,1.483,1.072,0.443,0.785,0.739,���쓌,3.7,��
2019/03/29,13:30,0.785,1.159,0.797,1.480,1.073,0.442,0.786,0.741,���쓌,4.1,��
2019/03/29,13:40,0.788,1.162,0.795,1.481,1.073,0.441,0.785,0.741,���쓌,4.8,��
2019/03/29,13:50,0.789,1.161,0.796,1.482,1.075,0.442,0.783,0.739,���쓌,4.4,��
2019/03/29,14:00,0.788,1.159,0.799,1.480,1.077,0.443,0.784,0.742,�쓌,3.6,��
2019/03/29,14:10,0.789,1.160,0.797,1.482,1.075,0.441,0.784,0.741,��쓌,4.7,��
2019/03/29,14:20,0.789,1.160,0.796,1.481,1.075,0.443,0.785,0.740,�쓌,4.5,��
2019/03/29,14:30,0.788,1.159,0.797,1.482,1.075,0.442,0.784,0.741,�쓌,3.6,��
2019/03/29,14:40,0.786,1.162,0.796,1.482,1.073,0.442,0.784,0.741,�쓌,4.3,��
2019/03/29,14:50,0.787,1.162,0.798,1.483,1.074,0.444,0.783,0.741,�쓌,5.0,��
2019/03/29,15:00,0.787,1.164,0.798,1.480,1.076,0.444,0.785,0.741,�쓌,4.6,��
2019/03/29,15:10,0.789,1.167,0.796,1.482,1.074,0.442,0.784,0.741,�쓌,4.5,��
2019/03/29,15:20,0.787,1.164,0.795,1.482,1.075,0.442,0.784,0.739,��쓌,5.2,��
2019/03/29,15:30,0.786,1.166,0.797,1.482,1.075,0.444,0.784,0.741,��쓌,4.2,��
2019/03/29,15:40,0.786,1.166,0.796,1.483,1.076,0.443,0.784,0.741,��쓌,5.7,��
2019/03/29,15:50,0.786,1.167,0.797,1.479,1.077,0.442,0.782,0.742,��쓌,5.3,��
2019/03/29,16:00,0.785,1.170,0.798,1.481,1.076,0.444,0.785,0.741,��쓌,6.0,��
2019/03/29,16:10,0.787,1.167,0.798,1.483,1.076,0.443,0.784,0.742,��쓌,5.9,��
2019/03/29,16:20,0.787,1.166,0.797,1.483,1.076,0.442,0.784,0.744,��쓌,5.7,��
2019/03/29,16:30,0.786,1.170,0.796,1.481,1.072,0.443,0.785,0.745,��쓌,6.5,��
2019/03/29,16:40,0.786,1.167,0.797,1.481,1.074,0.444,0.784,0.744,��쓌,6.8,��
2019/03/29,16:50,0.786,1.165,0.797,1.483,1.075,0.443,0.784,0.743,��쓌,6.8,��
2019/03/29,17:00,0.787,1.167,0.797,1.480,1.073,0.444,0.783,0.744,��쓌,5.6,��
2019/03/29,17:10,0.786,1.165,0.796,1.481,1.074,0.444,0.784,0.743,��쓌,4.5,��
2019/03/29,17:20,0.788,1.166,0.797,1.480,1.074,0.443,0.785,0.744,��쓌,6.2,��
2019/03/29,17:30,0.787,1.166,0.796,1.481,1.075,0.444,0.787,0.744,��쓌,4.7,��
2019/03/29,17:40,0.787,1.166,0.797,1.482,1.077,0.444,0.786,0.744,��,5.6,��
2019/03/29,17:50,0.786,1.165,0.797,1.483,1.076,0.443,0.785,0.742,��,4.8,��
2019/03/29,18:00,0.786,1.167,0.796,1.479,1.075,0.444,0.787,0.743,��,4.8,��
2019/03/29,18:10,0.788,1.168,0.796,1.480,1.077,0.443,0.785,0.743,��,5.2,��
2019/03/29,18:20,0.787,1.168,0.797,1.480,1.076,0.444,0.786,0.745,��,5.4,��
2019/03/29,18:30,0.786,1.165,0.796,1.480,1.076,0.444,0.786,0.740,��,4.4,��
2019/03/29,18:40,0.787,1.164,0.796,1.479,1.074,0.442,0.786,0.745,��,4.7,��
2019/03/29,18:50,0.787,1.166,0.796,1.478,1.075,0.442,0.785,0.743,��쐼,4.4,��
2019/03/29,19:00,0.787,1.164,0.796,1.483,1.075,0.444,0.787,0.744,��쐼,4.2,��
2019/03/29,19:10,0.787,1.165,0.796,1.480,1.073,0.442,0.786,0.742,��쐼,4.5,��
2019/03/29,19:20,0.786,1.165,0.797,1.479,1.076,0.442,0.784,0.742,��쐼,5.0,��
2019/03/29,19:30,0.785,1.163,0.794,1.481,1.073,0.442,0.783,0.742,��쐼,4.8,��
2019/03/29,19:40,0.787,1.166,0.796,1.483,1.074,0.443,0.785,0.742,��쐼,4.6,��
2019/03/29,19:50,0.786,1.165,0.794,1.480,1.076,0.443,0.785,0.744,��쐼,4.8,��
2019/03/29,20:00,0.786,1.164,0.795,1.480,1.074,0.442,0.783,0.742,��쐼,4.2,��
2019/03/29,20:10,0.785,1.165,0.797,1.479,1.074,0.443,0.786,0.741,��쐼,4.8,��
2019/03/29,20:20,0.787,1.166,0.796,1.480,1.073,0.442,0.783,0.744,��쐼,4.6,��
2019/03/29,20:30,0.786,1.162,0.798,1.480,1.075,0.442,0.785,0.743,��쐼,4.8,��
2019/03/29,20:40,0.786,1.163,0.796,1.481,1.074,0.443,0.784,0.744,��쐼,4.5,��
2019/03/29,20:50,0.786,1.162,0.798,1.479,1.075,0.443,0.785,0.743,��쐼,4.2,��
2019/03/29,21:00,0.788,1.163,0.797,1.479,1.073,0.441,0.784,0.742,��쐼,4.2,��
2019/03/29,21:10,0.784,1.164,0.794,1.482,1.075,0.442,0.785,0.741,�쐼,4.2,��
2019/03/29,21:20,0.783,1.161,0.795,1.480,1.075,0.442,0.784,0.742,�쐼,4.1,��
2019/03/29,21:30,0.788,1.164,0.796,1.480,1.074,0.442,0.784,0.742,��쐼,4.1,��
2019/03/29,21:40,0.787,1.164,0.796,1.480,1.076,0.442,0.784,0.742,��쐼,3.6,��
2019/03/29,21:50,0.784,1.164,0.797,1.478,1.075,0.442,0.785,0.744,��쐼,2.8,��
2019/03/29,22:00,0.786,1.164,0.799,1.483,1.075,0.441,0.784,0.742,��쐼,3.1,��
2019/03/29,22:10,0.787,1.163,0.796,1.481,1.073,0.442,0.786,0.743,��쐼,3.2,��
2019/03/29,22:20,0.786,1.165,0.796,1.480,1.075,0.442,0.783,0.744,��쐼,3.1,��
2019/03/29,22:30,0.788,1.164,0.796,1.481,1.076,0.443,0.786,0.743,��쐼,2.9,��
2019/03/29,22:40,0.787,1.163,0.797,1.481,1.075,0.442,0.786,0.743,��,3.2,��
2019/03/29,22:50,0.787,1.164,0.798,1.479,1.075,0.442,0.785,0.742,��,3.3,��
2019/03/29,23:00,0.787,1.163,0.795,1.478,1.074,0.442,0.784,0.744,��,3.2,��
2019/03/29,23:10,0.786,1.164,0.794,1.480,1.074,0.442,0.785,0.742,��,2.0,��
2019/03/29,23:20,0.787,1.163,0.798,1.481,1.075,0.442,0.786,0.741,�쐼,1.5,��
2019/03/29,23:30,0.785,1.164,0.795,1.481,1.076,0.442,0.785,0.742,���쐼,0.9,��
2019/03/29,23:40,0.787,1.163,0.796,1.481,1.074,0.442,0.786,0.743,�k��,0.8,�L
2019/03/29,23:50,0.786,1.163,0.797,1.480,1.075,0.442,0.784,0.742,-,CALM,�L
